SCP
0 0 0 0 0 0 0 0 0 0 0 0 0 0 0 0 0 0 0 0 0 0 0 0 0 0 0 0 0 0 0 0 0 0 0 0 0 0 0 0 0 0 0
0 0 0 0 0 0 0 0 0 0 0 0 0 0 0 0 0 0 0 0 0 0 0 0 0 0 0 0 0 0 0 0 0 0 0 0 0 0 0 0 0 0 0
0 0 0 0 0 0 0 0 0 0 0 0 0 0 0 0 0 0 0 0 0 0 0 0 0 0 0 0 0 0 0 0 0 0 0 0 0 0 0 0 0 0 0
0 0 0 0 0 0 0 0 0 0 0 0 0 0 0 0 0 0 0 0 0 0 0 0 0 0 0 0 0 0 0 0 0 0 0 0 0 0 0 0 0 0 0
0 0 0 0 0 0 0 0 0 0 0 0 0 0 0 0 0 0 0 0 0 0 0 0 0 0 0 0 0 0 0 0 0 0 0 0 0 0 0 0 0 0 0
0 0 0 0 0 0 0 0 0 0 0 0 0 0 0 0 0 0 0 0 0 0 0 0 0 0 0 0 0 0 0 0 0 0 0 0 0 0 0 0 0 0 0
0 0 0 0 0 0 0 0 0 0 0 0 0 0 0 0 0 0 0 0 0 0 0 0 0 0 0 0 0 0 0 0 0 0 0 0 0 0 0 0 0 0 0
0 0 0 0 0 0 0 0 0 0 0 0 0 0 0 0 0 0 0 0 0 0 0 0 0 0 0 0 0 0 0 0 0 0 0 0 0 0 0 0 0 0 0
0 0 0 0 0 0 0 0 0 0 0 0 0 0 0 0 0 0 0 0 0 0 0 0 0 0 0 0 0 0 0 0 0 0 0 0 0 0 0 0 0 0 0
0 0 0 0 0 0 0 0 0 0 0 0 0 0 0 0 0 0 0 0 0 0 0 0 0 0 0 0 0 0 0 0 0 0 0 0 0 0 0 0 0 0 0
0 0 0 0 0 0 0 0 0 0 0 0 0 0 0 0 0 0 0 0 0 0 0 0 0 0 0 0 0 0 0 0 0 0 0 0 0 0 0 0 0 0 0
0 0 0 0 0 0 0 0 0 0 0 0 0 0 0 0 0 0 0 0 0 0 0 0 0 0 0 0 -0 0 0 0 0 0 0 0 0 0 0 0 0 0 0
0 0 0 0 0 0 0 0 0 0 0 0 0 0 0 0 0 0 0 0 0 0 0 0 0 0 0 0 0 0 0 0 0 0 0 0 0 0 0 0 0 0 0
0 0 0 0 0 0 0 0 0 0 0 0 0 0 0 0 0 0 0 0 0 0 0 0 0 0 0 0 0 0 0 0 0 0 0 0 0 0 0 0 0 0 0
0 0 0 0 0 0 0 0 0 0 0 0 0 0 0 0 0 0 0 0 0 0 0 0 0 0 0 0 0 0 0 0 0 0 0 0 0 0 0 0 0 0 0
0 0 0 0 0 0 0 0 0 0 0 0 0 0 0 0 0 0 0 0 0 0 0 0 0 0 0 0 -0 -0 -0 -0 -0 -0 -0 -0 0 0 0 0 0 0 0
0 0 0 0 0 0 0 0 0 0 0 0 0 0 0 0 0 0 0 0 0 0 0 0 0 0 0 0 0 -0 -0 -0 -0 -0 -0 -0 -0 -0 -0 -0 0 0 0
0 0 0 0 0 0 0 0 0 0 0 0 0 0 0 0 0 0 0 0 0 0 -0 -0 0 -0 -0 -0 -0 -0 -0 -0 -0 -0 -0 -0 -0 -0 -0 0 0 0 0
0 0 0 0 0 0 0 0 0 0 0 0 0 0 0 0 0 0 0 0 0 0 -0 -0 -0 -0 -0 -0 -0 -0 -0 -0 -0 -0 -0 0 0 0 0 0 0 0 0
0 0 0 0 0 0 0 0 0 0 0 0 0 0 0 0 0 0 0 0 0 0 0 -0 -0 -0 -0 -0 -0 -0 -0 -0 -0 -0 -0 0 -0 0 0 0 0 -0 -0
0 0 0 0 0 0 0 0 0 0 0 0 0 0 0 0 0 0 0 0 0 0 0 0 0 0 0 -0 -0 -0 -0 -0 -0 -0 -0 -0 -0 -0 -0 -0 -0 0 0
0 0 0 0 0 0 0 0 0 0 0 0 0 0 0 0 0 0 0 0 0 0 0 0 0 0 0 0 0 0 -0 -0 -0 0 -0 -0 -0 -0 -0 -0 -0 -0 -0
0 0 0 0 0 0 0 0 0 0 0 0 0 0 0 0 0 0 0 0 0 0 0 0 0 0 0 0 0 0 0 0 0 0 0 0 -0 0 -0 0 -0 -0 -0
0 0 0 0 0 0 0 0 0 0 0 0 0 0 0 0 0 0 0 0 0 0 0 0 0 0 0 0 0 0 0 0 0 -0 -0 0 -0 -0 -0 0 -0 -0 0
0 0 0 0 0 0 0 0 0 0 0 0 0 0 0 0 0 0 0 0 0 0 0 0 0 0 0 0 0 0 0 0 0 -0 -0 -0 -0 -0 -0 -0 -0 0 -0
0 0 0 0 0 0 0 0 0 0 0 0 0 0 0 0 0 0 0 0 0 0 0 0 0 0 0 0 0 0 0 0 0 -0 0 0 0 -0 -0 0 0 -0 -0
Wind_Speed_500mb
33 35 35 35 34 31 32 31 31 29 28 28 28 29 29 30 31 32 34 34 36 38 40 41 42 42 43 46 46 48 50 49 51 50 49 45 39 41 45 49 49 47 46
35 36 38 40 41 38 37 38 37 35 34 33 33 32 33 34 34 36 37 36 35 37 40 41 43 46 47 47 49 50 52 56 57 56 60 58 50 44 43 46 51 55 54
44 42 40 41 44 43 43 42 41 41 42 40 41 38 38 38 40 39 37 35 33 35 39 42 44 45 48 51 51 53 53 56 63 64 64 65 69 64 55 52 51 57 58
51 49 49 49 44 46 46 45 44 45 46 46 45 44 45 45 44 43 42 40 39 41 45 48 50 52 52 54 54 54 55 55 59 65 68 71 72 74 69 67 64 57 62
53 56 57 54 50 48 48 48 49 48 49 46 44 45 45 45 46 45 43 41 43 43 42 35 35 41 43 44 50 50 53 59 60 62 69 72 74 79 78 77 74 73 64
50 53 57 58 58 58 55 51 51 49 50 50 49 50 50 49 48 48 46 44 38 35 36 44 47 46 47 46 42 44 49 53 53 58 66 68 75 80 83 80 80 81 79
48 52 54 56 65 58 57 56 53 53 53 52 54 58 57 54 51 52 48 41 37 36 38 34 39 40 41 44 41 41 44 53 53 60 68 60 68 78 84 81 86 85 88
44 47 48 45 57 64 62 57 57 56 57 53 55 59 51 47 54 53 43 40 30 32 30 37 34 43 34 36 41 42 41 46 53 56 55 57 65 71 76 74 89 91 92
44 47 38 39 47 53 58 54 54 55 56 52 51 49 20 22 35 34 34 27 17 24 26 31 32 29 28 35 39 36 38 41 40 43 48 54 54 57 65 69 69 92 93
42 43 41 40 38 42 49 62 46 50 45 41 38 36 38 48 8 11 18 13 25 17 24 34 34 30 24 28 27 31 36 34 38 34 41 53 59 63 66 67 64 68 83
43 48 45 43 38 39 39 44 50 51 51 33 31 29 22 18 23 13 23 18 26 27 20 28 37 37 33 32 37 36 40 47 47 43 47 46 53 56 60 64 60 57 68
39 44 44 35 30 27 32 32 33 36 36 30 31 29 20 23 25 20 24 30 32 26 35 28 32 33 34 34 42 43 49 53 51 50 55 53 52 56 62 57 58 60 60
34 37 33 34 39 38 40 40 39 34 28 25 23 24 22 24 26 23 27 33 36 34 17 21 25 30 34 39 49 54 50 53 57 60 63 68 71 73 71 69 66 60 57
34 34 35 30 30 29 26 24 22 22 21 19 19 20 20 19 19 21 23 26 27 19 20 18 25 28 31 34 40 42 42 43 47 50 52 56 60 64 69 75 78 73 66
31 28 26 23 21 20 19 18 18 18 16 14 15 13 13 12 12 12 15 19 19 12 15 22 34 40 44 46 51 57 60 60 57 58 59 61 59 62 64 65 67 72 73
24 23 22 21 20 20 20 20 20 19 19 17 15 12 8 3 3 5 7 12 18 19 14 27 36 42 50 57 63 66 68 71 71 76 77 77 74 71 68 66 65 67 68
24 23 23 22 22 22 22 21 20 19 17 15 11 9 10 12 9 7 7 12 20 26 31 35 42 48 52 60 63 68 73 79 82 81 80 79 78 82 86 86 78 70 69
28 27 26 25 24 22 22 22 21 20 18 17 17 17 15 13 8 9 12 16 24 34 42 47 50 58 60 61 66 69 71 74 76 78 80 83 84 87 84 83 85 84 78
30 30 28 26 25 24 24 25 25 25 24 21 17 12 8 7 7 12 17 22 27 33 39 46 54 57 62 67 71 73 73 74 73 75 76 77 80 81 83 85 84 83 81
33 31 30 28 26 25 27 27 26 23 19 14 10 6 3 4 11 16 22 25 29 34 39 44 51 57 63 68 72 82 86 83 86 82 84 81 82 83 84 84 86 89 88
35 33 31 29 27 29 30 28 25 22 18 15 12 5 1 6 12 19 22 26 30 36 40 42 47 54 59 69 73 78 83 91 89 84 90 90 91 90 85 88 86 86 88
37 35 34 33 32 34 33 33 29 25 20 15 10 7 5 7 10 17 21 27 31 33 38 41 45 51 54 58 64 71 80 90 100 87 102 102 92 89 96 96 97 94 86
39 38 36 35 34 33 36 32 28 24 20 15 11 7 7 9 11 13 18 23 28 31 34 36 39 44 51 56 64 68 69 74 80 88 89 109 87 101 98 98 96 95 92
41 38 38 37 36 33 36 32 28 23 18 15 12 10 11 12 15 15 18 21 22 26 29 36 41 42 45 49 52 58 65 72 76 73 70 88 103 107 109 105 98 98 102
44 44 42 39 38 33 32 28 23 19 17 15 14 13 13 15 21 20 21 22 24 27 28 31 36 39 41 42 48 57 62 71 83 86 45 85 94 109 113 111 106 105 105
44 45 42 41 39 35 29 28 24 19 19 17 17 16 16 17 20 23 23 26 29 30 32 32 34 36 39 41 45 48 52 58 61 76 58 84 90 83 93 117 114 111 110
Wind_Direction_500mb
262 261 263 262 264 268 273 273 272 273 275 277 278 281 284 291 297 297 295 292 290 288 286 286 284 280 278 275 274 276 278 280 281 278 282 271 269 267 257 248 247 243 245
269 266 265 267 268 269 270 272 274 275 276 276 277 281 288 291 293 293 293 292 292 293 293 292 291 289 283 277 275 274 275 275 274 273 273 274 276 273 273 267 252 244 245
271 272 271 269 269 268 269 271 273 276 278 280 281 284 286 288 288 289 288 288 289 291 295 296 294 293 293 290 279 275 272 269 269 270 271 274 275 273 271 268 267 258 249
273 271 269 267 269 262 262 265 270 274 276 276 279 281 283 284 285 286 286 289 294 300 300 295 294 293 292 291 284 282 279 279 273 268 267 270 271 276 274 270 269 265 256
266 263 265 266 266 271 264 261 263 265 272 274 279 281 280 280 284 285 290 296 300 305 311 322 315 301 299 300 300 292 284 280 279 278 270 267 267 268 272 273 269 266 264
262 260 263 263 263 265 269 270 266 266 269 276 279 282 284 284 286 288 290 294 301 303 302 301 302 302 302 303 304 304 301 305 289 280 278 274 269 267 266 263 270 270 267
266 263 265 265 263 262 265 267 269 267 270 274 278 282 286 284 283 287 290 292 291 293 295 298 298 298 303 313 313 314 312 310 307 304 296 284 285 272 266 266 261 263 267
261 268 266 267 266 264 264 266 265 266 266 271 272 280 284 286 289 287 284 278 281 285 287 303 304 313 315 318 318 316 319 315 309 295 301 302 300 293 288 280 265 262 258
253 257 257 269 259 260 263 265 265 265 267 270 273 270 273 281 286 266 256 278 295 313 316 318 321 326 333 326 321 321 324 319 312 314 314 312 309 304 310 295 286 275 259
257 259 269 274 268 267 265 260 262 261 265 271 274 278 276 287 322 322 305 294 298 288 316 314 320 328 318 316 308 304 306 314 310 309 321 308 310 310 311 317 305 286 323
260 262 259 261 258 262 255 253 256 264 263 253 248 264 258 264 281 288 287 291 303 317 321 329 311 314 309 306 303 312 313 307 311 307 312 298 301 301 308 305 319 310 303
250 255 248 245 250 238 269 275 272 272 269 264 262 269 256 259 280 281 285 290 297 309 318 301 302 297 299 300 300 300 299 302 305 308 306 308 300 299 302 306 311 313 306
238 247 254 269 269 271 270 266 263 259 251 244 249 260 258 269 274 275 286 297 306 321 329 321 307 310 309 308 306 307 312 310 307 305 299 296 297 298 300 302 298 297 294
253 259 261 258 257 257 254 251 247 247 247 244 241 247 254 268 280 292 299 306 313 318 328 337 342 346 343 338 338 337 337 338 335 331 328 321 315 309 302 298 295 294 295
244 243 241 236 231 229 229 228 226 221 216 221 229 228 236 243 259 285 301 316 336 358 357 347 347 347 347 344 341 342 341 341 340 338 334 334 331 327 324 320 313 304 294
224 221 220 220 222 224 227 228 225 221 220 211 196 202 207 177 106 61 29 359 354 359 358 345 348 346 343 342 343 342 342 341 340 340 340 340 337 334 329 325 323 319 313
220 222 225 227 227 224 220 218 216 210 203 192 182 158 145 126 122 108 53 9 355 350 353 348 348 345 344 339 338 338 339 338 337 338 339 336 335 333 332 331 329 326 321
228 227 225 225 224 221 217 212 203 191 185 177 167 158 151 136 102 50 24 6 354 349 348 346 345 342 341 338 337 334 334 332 332 334 332 331 331 333 332 329 326 325 321
233 234 231 225 220 216 213 203 195 185 176 166 155 138 107 80 29 14 7 359 353 348 345 342 337 338 334 333 331 330 331 328 331 330 329 325 330 330 328 326 324 323 320
235 232 228 223 221 216 207 197 188 181 176 169 162 162 128 32 11 2 356 350 346 340 338 336 333 332 330 330 329 329 328 330 332 333 330 331 330 328 328 326 327 327 326
233 231 228 226 221 212 202 193 184 181 185 188 184 185 31 2 358 351 345 339 338 334 332 330 326 326 326 328 332 333 331 330 330 333 328 329 331 327 328 328 330 330 327
232 230 227 223 214 209 203 197 192 192 195 198 205 213 261 322 342 338 331 328 327 328 326 327 327 326 328 328 330 332 332 332 332 331 329 326 330 327 330 331 331 326 325
228 225 219 215 211 205 195 194 196 197 199 205 218 241 277 305 319 323 324 323 322 320 319 322 324 327 330 333 328 324 326 326 324 328 329 323 327 326 328 326 325 326 326
222 219 216 215 213 208 199 200 203 203 207 213 225 245 267 294 305 310 315 310 310 313 321 328 329 328 324 323 323 323 324 319 318 331 335 323 326 326 323 323 325 326 324
216 219 214 216 217 217 206 204 207 211 220 227 236 248 272 291 294 302 308 312 319 321 321 319 320 319 317 318 319 319 320 325 326 334 342 326 324 326 322 321 323 324 323
221 221 217 218 219 220 213 210 213 218 227 234 243 253 265 279 295 310 319 318 317 318 314 313 315 316 317 318 319 322 324 328 333 330 334 327 325 335 326 318 320 322 323
Wind_Speed_850mb
33 35 35 35 34 31 32 31 31 29 28 28 28 29 29 30 31 32 34 34 36 38 40 41 42 42 43 46 46 48 50 49 51 50 49 45 39 41 45 49 49 47 46
35 36 38 40 41 38 37 38 37 35 34 33 33 32 33 34 34 36 37 36 35 37 40 41 43 46 47 47 49 50 52 56 57 56 60 58 50 44 43 46 51 55 54
44 42 40 41 44 43 43 42 41 41 42 40 41 38 38 38 40 39 37 35 33 35 39 42 44 45 48 51 51 53 53 56 63 64 64 65 69 64 55 52 51 57 58
51 49 49 49 44 46 46 45 44 45 46 46 45 44 45 45 44 43 42 40 39 41 45 48 50 52 52 54 54 54 55 55 59 65 68 71 72 74 69 67 64 57 62
53 56 57 54 50 48 48 48 49 48 49 46 44 45 45 45 46 45 43 41 43 43 42 35 35 41 43 44 50 50 53 59 60 62 69 72 74 79 78 77 74 73 64
50 53 57 58 58 58 55 51 51 49 50 50 49 50 50 49 48 48 46 44 38 35 36 44 47 46 47 46 42 44 49 53 53 58 66 68 75 80 83 80 80 81 79
48 52 54 56 65 58 57 56 53 53 53 52 54 58 57 54 51 52 48 41 37 36 38 34 39 40 41 44 41 41 44 53 53 60 68 60 68 78 84 81 86 85 88
44 47 48 45 57 64 62 57 57 56 57 53 55 59 51 47 54 53 43 40 30 32 30 37 34 43 34 36 41 42 41 46 53 56 55 57 65 71 76 74 89 91 92
44 47 38 39 47 53 58 54 54 55 56 52 51 49 20 22 35 34 34 27 17 24 26 31 32 29 28 35 39 36 38 41 40 43 48 54 54 57 65 69 69 92 93
42 43 41 40 38 42 49 62 46 50 45 41 38 36 38 48 8 11 18 13 25 17 24 34 34 30 24 28 27 31 36 34 38 34 41 53 59 63 66 67 64 68 83
43 48 45 43 38 39 39 44 50 51 51 33 31 29 22 18 23 13 23 18 26 27 20 28 37 37 33 32 37 36 40 47 47 43 47 46 53 56 60 64 60 57 68
39 44 44 35 30 27 32 32 33 36 36 30 31 29 20 23 25 20 24 30 32 26 35 28 32 33 34 34 42 43 49 53 51 50 55 53 52 56 62 57 58 60 60
34 37 33 34 39 38 40 40 39 34 28 25 23 24 22 24 26 23 27 33 36 34 17 21 25 30 34 39 49 54 50 53 57 60 63 68 71 73 71 69 66 60 57
34 34 35 30 30 29 26 24 22 22 21 19 19 20 20 19 19 21 23 26 27 19 20 18 25 28 31 34 40 42 42 43 47 50 52 56 60 64 69 75 78 73 66
31 28 26 23 21 20 19 18 18 18 16 14 15 13 13 12 12 12 15 19 19 12 15 22 34 40 44 46 51 57 60 60 57 58 59 61 59 62 64 65 67 72 73
24 23 22 21 20 20 20 20 20 19 19 17 15 12 8 3 3 5 7 12 18 19 14 27 36 42 50 57 63 66 68 71 71 76 77 77 74 71 68 66 65 67 68
24 23 23 22 22 22 22 21 20 19 17 15 11 9 10 12 9 7 7 12 20 26 31 35 42 48 52 60 63 68 73 79 82 81 80 79 78 82 86 86 78 70 69
28 27 26 25 24 22 22 22 21 20 18 17 17 17 15 13 8 9 12 16 24 34 42 47 50 58 60 61 66 69 71 74 76 78 80 83 84 87 84 83 85 84 78
30 30 28 26 25 24 24 25 25 25 24 21 17 12 8 7 7 12 17 22 27 33 39 46 54 57 62 67 71 73 73 74 73 75 76 77 80 81 83 85 84 83 81
33 31 30 28 26 25 27 27 26 23 19 14 10 6 3 4 11 16 22 25 29 34 39 44 51 57 63 68 72 82 86 83 86 82 84 81 82 83 84 84 86 89 88
35 33 31 29 27 29 30 28 25 22 18 15 12 5 1 6 12 19 22 26 30 36 40 42 47 54 59 69 73 78 83 91 89 84 90 90 91 90 85 88 86 86 88
37 35 34 33 32 34 33 33 29 25 20 15 10 7 5 7 10 17 21 27 31 33 38 41 45 51 54 58 64 71 80 90 100 87 102 102 92 89 96 96 97 94 86
39 38 36 35 34 33 36 32 28 24 20 15 11 7 7 9 11 13 18 23 28 31 34 36 39 44 51 56 64 68 69 74 80 88 89 109 87 101 98 98 96 95 92
41 38 38 37 36 33 36 32 28 23 18 15 12 10 11 12 15 15 18 21 22 26 29 36 41 42 45 49 52 58 65 72 76 73 70 88 103 107 109 105 98 98 102
44 44 42 39 38 33 32 28 23 19 17 15 14 13 13 15 21 20 21 22 24 27 28 31 36 39 41 42 48 57 62 71 83 86 45 85 94 109 113 111 106 105 105
44 45 42 41 39 35 29 28 24 19 19 17 17 16 16 17 20 23 23 26 29 30 32 32 34 36 39 41 45 48 52 58 61 76 58 84 90 83 93 117 114 111 110
Wind_Direction_850mb
262 261 263 262 264 268 273 273 272 273 275 277 278 281 284 291 297 297 295 292 290 288 286 286 284 280 278 275 274 276 278 280 281 278 282 271 269 267 257 248 247 243 245
269 266 265 267 268 269 270 272 274 275 276 276 277 281 288 291 293 293 293 292 292 293 293 292 291 289 283 277 275 274 275 275 274 273 273 274 276 273 273 267 252 244 245
271 272 271 269 269 268 269 271 273 276 278 280 281 284 286 288 288 289 288 288 289 291 295 296 294 293 293 290 279 275 272 269 269 270 271 274 275 273 271 268 267 258 249
273 271 269 267 269 262 262 265 270 274 276 276 279 281 283 284 285 286 286 289 294 300 300 295 294 293 292 291 284 282 279 279 273 268 267 270 271 276 274 270 269 265 256
266 263 265 266 266 271 264 261 263 265 272 274 279 281 280 280 284 285 290 296 300 305 311 322 315 301 299 300 300 292 284 280 279 278 270 267 267 268 272 273 269 266 264
262 260 263 263 263 265 269 270 266 266 269 276 279 282 284 284 286 288 290 294 301 303 302 301 302 302 302 303 304 304 301 305 289 280 278 274 269 267 266 263 270 270 267
266 263 265 265 263 262 265 267 269 267 270 274 278 282 286 284 283 287 290 292 291 293 295 298 298 298 303 313 313 314 312 310 307 304 296 284 285 272 266 266 261 263 267
261 268 266 267 266 264 264 266 265 266 266 271 272 280 284 286 289 287 284 278 281 285 287 303 304 313 315 318 318 316 319 315 309 295 301 302 300 293 288 280 265 262 258
253 257 257 269 259 260 263 265 265 265 267 270 273 270 273 281 286 266 256 278 295 313 316 318 321 326 333 326 321 321 324 319 312 314 314 312 309 304 310 295 286 275 259
257 259 269 274 268 267 265 260 262 261 265 271 274 278 276 287 322 322 305 294 298 288 316 314 320 328 318 316 308 304 306 314 310 309 321 308 310 310 311 317 305 286 323
260 262 259 261 258 262 255 253 256 264 263 253 248 264 258 264 281 288 287 291 303 317 321 329 311 314 309 306 303 312 313 307 311 307 312 298 301 301 308 305 319 310 303
250 255 248 245 250 238 269 275 272 272 269 264 262 269 256 259 280 281 285 290 297 309 318 301 302 297 299 300 300 300 299 302 305 308 306 308 300 299 302 306 311 313 306
238 247 254 269 269 271 270 266 263 259 251 244 249 260 258 269 274 275 286 297 306 321 329 321 307 310 309 308 306 307 312 310 307 305 299 296 297 298 300 302 298 297 294
253 259 261 258 257 257 254 251 247 247 247 244 241 247 254 268 280 292 299 306 313 318 328 337 342 346 343 338 338 337 337 338 335 331 328 321 315 309 302 298 295 294 295
244 243 241 236 231 229 229 228 226 221 216 221 229 228 236 243 259 285 301 316 336 358 357 347 347 347 347 344 341 342 341 341 340 338 334 334 331 327 324 320 313 304 294
224 221 220 220 222 224 227 228 225 221 220 211 196 202 207 177 106 61 29 359 354 359 358 345 348 346 343 342 343 342 342 341 340 340 340 340 337 334 329 325 323 319 313
220 222 225 227 227 224 220 218 216 210 203 192 182 158 145 126 122 108 53 9 355 350 353 348 348 345 344 339 338 338 339 338 337 338 339 336 335 333 332 331 329 326 321
228 227 225 225 224 221 217 212 203 191 185 177 167 158 151 136 102 50 24 6 354 349 348 346 345 342 341 338 337 334 334 332 332 334 332 331 331 333 332 329 326 325 321
233 234 231 225 220 216 213 203 195 185 176 166 155 138 107 80 29 14 7 359 353 348 345 342 337 338 334 333 331 330 331 328 331 330 329 325 330 330 328 326 324 323 320
235 232 228 223 221 216 207 197 188 181 176 169 162 162 128 32 11 2 356 350 346 340 338 336 333 332 330 330 329 329 328 330 332 333 330 331 330 328 328 326 327 327 326
233 231 228 226 221 212 202 193 184 181 185 188 184 185 31 2 358 351 345 339 338 334 332 330 326 326 326 328 332 333 331 330 330 333 328 329 331 327 328 328 330 330 327
232 230 227 223 214 209 203 197 192 192 195 198 205 213 261 322 342 338 331 328 327 328 326 327 327 326 328 328 330 332 332 332 332 331 329 326 330 327 330 331 331 326 325
228 225 219 215 211 205 195 194 196 197 199 205 218 241 277 305 319 323 324 323 322 320 319 322 324 327 330 333 328 324 326 326 324 328 329 323 327 326 328 326 325 326 326
222 219 216 215 213 208 199 200 203 203 207 213 225 245 267 294 305 310 315 310 310 313 321 328 329 328 324 323 323 323 324 319 318 331 335 323 326 326 323 323 325 326 324
216 219 214 216 217 217 206 204 207 211 220 227 236 248 272 291 294 302 308 312 319 321 321 319 320 319 317 318 319 319 320 325 326 334 342 326 324 326 322 321 323 324 323
221 221 217 218 219 220 213 210 213 218 227 234 243 253 265 279 295 310 319 318 317 318 314 313 315 316 317 318 319 322 324 328 333 330 334 327 325 335 326 318 320 322 323